Location: Coupvray
(48.8929°N, 2.7967°E)
Time: 08:40:07
(UTC+00:00)

Cosmos 921 Rocket - Pass Details

Date: 14 July 2020
Orbit: 572 x 631 km, 75.8° (Epoch: 14 August)

Event Time Altitude Azimuth Distance (km) Brightness Sun altitude
Rises 02:05:20 0° 339° (NNW) 2,904 7.1 -13.7°
Reaches altitude 10° 02:07:36 10° 340° (NNW) 1,985 6.2 -13.5°
Maximum altitude 02:12:02 89° 250° (WSW) 613 3.0 -13.1°
Drops below altitude 10° 02:16:21 10° 162° (SSE) 1,932 5.2 -12.7°
Enters shadow 02:17:11 - 162° (SSE) 2,266 5.6 -12.7°
